| time (UTC) | temp C | wind direction | speed KPH | gust KPH | rain 1hr cm | rain 24hr cm | rain mn cm | humidity % | barometer mb |
| 20260902191518 | 30 | 270 | 1.6 | 14.5 | 0.00 | 0.00 | 0.00 | 72 | 1009.7 |
| 20260902190012 | 30 | 267 | 1.6 | 14.5 | 0.00 | 0.00 | 0.00 | 72 | 1009.8 |
| 20260902184512 | 30 | 195 | 1.6 | 14.5 | 0.00 | 0.00 | 0.00 | 71 | 1009.8 |
| 20260902183010 | 30 | 190 | 1.6 | 8.0 | 0.00 | 0.00 | 0.00 | 69 | 1009.9 |
| 20260902181611 | 30 | 259 | 4.8 | 14.5 | 0.00 | 0.00 | 0.00 | 69 | 1010.0 |
| 20260902180008 | 30 | 199 | 4.8 | 12.9 | 0.00 | 0.00 | 0.00 | 69 | 1009.9 |
| 20260902174507 | 30 | 252 | 4.8 | 12.9 | 0.00 | 0.00 | 0.00 | 69 | 1009.9 |
| 20260902173003 | 30 | 196 | 1.6 | 16.1 | 0.00 | 0.00 | 0.00 | 72 | 1010.4 |
| 20260902171502 | 30 | 205 | 3.2 | 12.9 | 0.00 | 0.00 | 0.00 | 68 | 1010.8 |
| 20260902170059 | 30 | 144 | 4.8 | 12.9 | 0.00 | 0.00 | 0.00 | 71 | 1011.0 |
| 20260902164559 | 29 | 288 | 1.6 | 9.7 | 0.00 | 0.00 | 0.00 | 72 | 1011.5 |
| 20260902163055 | 28 | 276 | 6.4 | 14.5 | 0.00 | 0.00 | 0.00 | 70 | 1011.7 |
| 20260902161557 | 29 | 215 | 4.8 | 12.9 | 0.00 | 0.00 | 0.00 | 71 | 1011.8 |
| 20260902160055 | 28 | 311 | 8.0 | 16.1 | 0.00 | 0.00 | 0.00 | 73 | 1011.9 |
| 20260902154604 | 28 | 299 | 4.8 | 16.1 | 0.00 | 0.00 | 0.00 | 76 | 1012.1 |
| 20260902153042 | 27 | 265 | 3.2 | 14.5 | 0.00 | 0.00 | 0.00 | 79 | 1012.0 |
| 20260902151540 | 27 | 276 | 3.2 | 12.9 | 0.00 | 0.00 | 0.00 | 78 | 1011.8 |
| 20260902150037 | 28 | 308 | 4.8 | 14.5 | 0.00 | 0.00 | 0.00 | 78 | 1011.5 |
| 20260902144534 | 27 | 260 | 3.2 | 12.9 | 0.00 | 0.00 | 0.00 | 79 | 1011.4 |
| 20260902143031 | 27 | 265 | 1.6 | 12.9 | 0.00 | 0.00 | 0.00 | 79 | 1011.4 |
| 20260902141527 | 27 | 296 | 1.6 | 9.7 | 0.00 | 0.00 | 0.00 | 81 | 1011.3 |
| 20260902140023 | 26 | 230 | 0.0 | 4.8 | 0.00 | 0.00 | 0.00 | 84 | 1011.0 |
| 20260902134519 | 25 | 262 | 0.0 | 6.4 | 0.00 | 0.00 | 0.00 | 87 | 1011.3 |
| 20260902133016 | 25 | 250 | 1.6 | 8.0 | 0.00 | 0.00 | 0.00 | 88 | 1011.4 |
| 20260902131512 | 23 | 257 | 0.0 | 4.8 | 0.00 | 0.00 | 0.00 | 90 | 1011.4 |
| 20260902130008 | 23 | 252 | 1.6 | 4.8 | 0.00 | 0.00 | 0.00 | 90 | 1011.3 |
| 20260902124509 | 23 | 243 | 0.0 | 6.4 | 0.00 | 0.00 | 0.00 | 90 | 1011.1 |
| 20260902123006 | 23 | 165 | 0.0 | 6.4 | 0.00 | 0.00 | 0.00 | 91 | 1011.0 |
| 20260902121504 | 22 | 278 | 0.0 | 3.2 | 0.00 | 0.00 | 0.00 | 91 | 1010.8 |
| 20260902120002 | 22 | 281 | 0.0 | 1.6 | 0.00 | 0.00 | 0.00 | 91 | 1010.9 |
| 20260902114619 | 22 | 266 | 0.0 | 0.0 | 0.00 | 0.00 | 0.00 | 92 | 1010.9 |
| 20260902113107 | 22 | 266 | 0.0 | 0.0 | 0.00 | 0.00 | 0.00 | 92 | 1010.9 |
| 20260902111601 | 22 | 266 | 0.0 | 0.0 | 0.00 | 0.00 | 0.00 | 92 | 1011.0 |
| 20260902110055 | 21 | 266 | 0.0 | 0.0 | 0.00 | 0.00 | 0.00 | 92 | 1011.2 |
| 20260902104556 | 21 | 266 | 0.0 | 3.2 | 0.00 | 0.00 | 0.00 | 92 | 1011.0 |
| 20260902103106 | 21 | 211 | 0.0 | 1.6 | 0.00 | 0.00 | 0.00 | 92 | 1010.9 |
| 20260902101554 | 21 | 211 | 0.0 | 1.6 | 0.00 | 0.00 | 0.00 | 92 | 1010.9 |
| 20260902100119 | 22 | 211 | 0.0 | 0.0 | 0.00 | 0.00 | 0.00 | 92 | 1010.7 |
| 20260902094611 | 22 | 211 | 0.0 | 1.6 | 0.00 | 0.00 | 0.00 | 92 | 1010.8 |
| 20260902093109 | 22 | 211 | 0.0 | 0.0 | 0.00 | 0.00 | 0.00 | 92 | 1010.9 |
| 20260902091549 | 22 | 211 | 0.0 | 1.6 | 0.00 | 0.00 | 0.00 | 92 | 1010.9 |
| 20260902090049 | 22 | 211 | 0.0 | 0.0 | 0.00 | 0.00 | 0.00 | 92 | 1010.8 |
| 20260902084547 | 22 | 211 | 0.0 | 0.0 | 0.00 | 0.00 | 0.00 | 92 | 1010.9 |
| 20260902083046 | 22 | 211 | 0.0 | 0.0 | 0.00 | 0.00 | 0.00 | 91 | 1010.9 |
| 20260902081548 | 22 | 211 | 0.0 | 0.0 | 0.00 | 0.00 | 0.00 | 91 | 1010.7 |
| 20260902080045 | 22 | 211 | 0.0 | 1.6 | 0.00 | 0.00 | 0.00 | 92 | 1010.8 |
| 20260902074544 | 22 | 223 | 0.0 | 3.2 | 0.00 | 0.00 | 0.00 | 92 | 1010.8 |
| 20260902073048 | 22 | 242 | 0.0 | 3.2 | 0.00 | 0.00 | 0.00 | 92 | 1010.8 |
| 20260902071546 | 22 | 241 | 0.0 | 1.6 | 0.00 | 0.00 | 0.00 | 92 | 1010.7 |
| 20260902070041 | 22 | 226 | 0.0 | 6.4 | 0.00 | 0.00 | 0.00 | 92 | 1010.7 |
| 20260902064542 | 22 | 225 | 0.0 | 4.8 | 0.00 | 0.00 | 0.00 | 91 | 1010.9 |
| 20260902063037 | 23 | 204 | 1.6 | 6.4 | 0.00 | 0.00 | 0.00 | 91 | 1011.0 |
| 20260902061544 | 23 | 227 | 1.6 | 3.2 | 0.00 | 0.00 | 0.00 | 91 | 1011.0 |
| 20260902060045 | 23 | 227 | 1.6 | 4.8 | 0.00 | 0.00 | 0.00 | 91 | 1011.1 |
| 20260902054540 | 23 | 234 | 0.0 | 0.0 | 0.00 | 0.00 | 0.00 | 91 | 1011.3 |
| 20260902053034 | 23 | 234 | 0.0 | 1.6 | 0.00 | 0.00 | 0.00 | 91 | 1011.3 |
| 20260902051533 | 23 | 234 | 0.0 | 1.6 | 0.00 | 0.00 | 0.00 | 91 | 1011.5 |
| 20260902050038 | 23 | 234 | 1.6 | 4.8 | 0.00 | 0.00 | 0.00 | 91 | 1011.2 |
| 20260902044524 | 23 | 254 | 0.0 | 3.2 | 0.00 | 0.00 | 0.00 | 91 | 1011.2 |
| 20260902043020 | 23 | 224 | 0.0 | 3.2 | 0.00 | 0.00 | 0.00 | 91 | 1011.2 |
| 20260902041522 | 23 | 217 | 0.0 | 4.8 | 0.00 | 0.00 | 0.00 | 91 | 1011.3 |
| 20260902040014 | 23 | 225 | 0.0 | 6.4 | 0.00 | 0.00 | 0.00 | 92 | 1011.3 |
| 20260902034510 | 23 | 198 | 3.2 | 6.4 | 0.00 | 0.00 | 0.00 | 92 | 1011.0 |
| 20260902033009 | 23 | 229 | 1.6 | 6.4 | 0.00 | 0.00 | 0.00 | 92 | 1011.0 |
| 20260902031508 | 22 | 134 | 0.0 | 0.0 | 0.00 | 0.00 | 0.00 | 92 | 1011.2 |
| 20260902030009 | 22 | 134 | 0.0 | 0.0 | 0.00 | 0.00 | 0.00 | 91 | 1011.2 |
| 20260902024508 | 23 | 134 | 0.0 | 0.0 | 0.00 | 0.00 | 0.00 | 91 | 1011.2 |
| 20260902023007 | 23 | 134 | 0.0 | 3.2 | 0.00 | 0.00 | 0.00 | 91 | 1011.2 |
| 20260902021513 | 23 | 134 | 0.0 | 4.8 | 0.00 | 0.00 | 0.00 | 90 | 1011.2 |
| 20260902020006 | 23 | 134 | 3.2 | 6.4 | 0.00 | 0.00 | 0.00 | 90 | 1011.2 |
| 20260902014506 | 23 | 138 | 0.0 | 1.6 | 0.00 | 0.00 | 0.00 | 90 | 1011.3 |
| 20260902013005 | 23 | 134 | 3.2 | 6.4 | 0.00 | 0.00 | 0.00 | 89 | 1011.3 |
| 20260902011505 | 23 | 152 | 1.6 | 4.8 | 0.00 | 0.00 | 0.00 | 89 | 1011.1 |
| 20260902010012 | 23 | 103 | 1.6 | 6.4 | 0.00 | 0.00 | 0.00 | 89 | 1010.8 |
| 20260902004507 | 24 | 103 | 0.0 | 6.4 | 0.00 | 0.00 | 0.00 | 88 | 1010.8 |
| 20260902003003 | 24 | 107 | 1.6 | 4.8 | 0.00 | 0.00 | 0.00 | 88 | 1010.8 |
| 20260902001503 | 24 | 119 | 3.2 | 6.4 | 0.00 | 0.00 | 0.00 | 87 | 1010.7 |
| 20260902000004 | 25 | 127 | 3.2 | 6.4 | 0.00 | 0.00 | 0.00 | 85 | 1010.9 |
| 20260901234502 | 25 | 109 | 3.2 | 9.7 | 0.00 | 0.00 | 0.00 | 85 | 1010.9 |
| 20260901233001 | 26 | 123 | 4.8 | 11.3 | 0.00 | 0.00 | 0.00 | 84 | 1010.9 |
| 20260901231501 | 26 | 123 | 6.4 | 14.5 | 0.00 | 0.00 | 0.00 | 82 | 1011.0 |
| 20260901230114 | 26 | 98 | 9.7 | 16.1 | 0.00 | 0.00 | 0.00 | 81 | 1011.2 |
| 20260901224602 | 27 | 98 | 8.0 | 14.5 | 0.00 | 0.00 | 0.00 | 81 | 1011.1 |
| 20260901223101 | 27 | 133 | 6.4 | 12.9 | 0.00 | 0.00 | 0.00 | 79 | 1010.9 |
| 20260901221601 | 27 | 80 | 4.8 | 12.9 | 0.00 | 0.00 | 0.00 | 79 | 1011.1 |
| 20260901220057 | 27 | 125 | 6.4 | 14.5 | 0.00 | 0.00 | 0.00 | 80 | 1011.0 |
| 20260901214605 | 27 | 137 | 6.4 | 14.5 | 0.00 | 0.00 | 0.00 | 79 | 1010.9 |
| 20260901213134 | 27 | 123 | 9.7 | 16.1 | 0.00 | 0.00 | 0.00 | 78 | 1010.9 |
| 20260901211554 | 28 | 124 | 8.0 | 16.1 | 0.00 | 0.00 | 0.00 | 78 | 1010.9 |
| 20260901210055 | 28 | 150 | 8.0 | 14.5 | 0.00 | 0.00 | 0.00 | 77 | 1011.0 |
| 20260901204553 | 28 | 117 | 4.8 | 12.9 | 0.00 | 0.00 | 0.00 | 77 | 1011.1 |
| 20260901203116 | 28 | 96 | 3.2 | 11.3 | 0.00 | 0.00 | 0.00 | 79 | 1011.2 |
| 20260901201558 | 28 | 136 | 4.8 | 11.3 | 0.00 | 0.00 | 0.00 | 78 | 1011.3 |
| 20260901200052 | 27 | 92 | 6.4 | 12.9 | 0.00 | 0.00 | 0.00 | 79 | 1011.2 |
| 20260901194600 | 28 | 144 | 6.4 | 14.5 | 0.00 | 0.03 | 0.00 | 78 | 1011.3 |
| 20260901193051 | 29 | 65 | 9.7 | 14.5 | 0.00 | 0.03 | 0.00 | 75 | 1011.3 |